EZY411 EGPH-GCRR

Flight info

Callsign EZY411
Flight time N/A
Altitude 38000
Route GOSAM DCT TRN DCT NIMAT DCT DUB DCT SUTEX DCT ELTIG DCT TUVEN/M080F380 DCT LASNO T9 BEGAS/N0454F380 DCT DEMOS/N0454F370 DCT TAKAV/N0452F390 DCT VEDOD UN857 TERTO
Aircraft A20N/M-SDE2E3FGHIRWXY/LB1

Departure

Time 2026-04-22 13:21
Airport Edinburgh Airport (EGPH)

Arrival

Time N/A
Airport César Manrique-Lanzarote Airport (GCRR)
Time Latitude Longitude Altitude Speed Heading
2026-04-22 12:57 55.94839 -3.35805 101 ft 0 kts 209°
2026-04-22 13:12 55.94849 -3.35794 100 ft 2 kts 209°
2026-04-22 13:12 55.94864 -3.35779 101 ft 2 kts 212°
2026-04-22 13:13 55.94877 -3.35763 102 ft 2 kts 217°
2026-04-22 13:13 55.94890 -3.35743 103 ft 2 kts 245°
2026-04-22 13:13 55.94891 -3.35719 103 ft 1 kts 301°
2026-04-22 13:13 55.94890 -3.35716 103 ft 0 kts 299°
2026-04-22 13:16 55.94894 -3.35728 102 ft 5 kts 300°
2026-04-22 13:16 55.94928 -3.35831 105 ft 12 kts 308°
2026-04-22 13:16 55.95008 -3.35847 104 ft 12 kts 20°
2026-04-22 13:17 55.95067 -3.35910 106 ft 11 kts 304°
2026-04-22 13:17 55.95101 -3.36045 104 ft 13 kts 290°
2026-04-22 13:17 55.95133 -3.36205 106 ft 14 kts 289°
2026-04-22 13:17 55.95106 -3.36372 109 ft 15 kts 242°
2026-04-22 13:18 55.95048 -3.36544 112 ft 18 kts 236°
2026-04-22 13:18 55.94969 -3.36768 111 ft 25 kts 238°
2026-04-22 13:18 55.94866 -3.37078 109 ft 32 kts 239°
2026-04-22 13:18 55.94752 -3.37422 113 ft 31 kts 239°
2026-04-22 13:19 55.94636 -3.37758 115 ft 32 kts 239°
2026-04-22 13:19 55.94518 -3.38101 112 ft 34 kts 239°
2026-04-22 13:19 55.94401 -3.38443 115 ft 25 kts 237°
2026-04-22 13:19 55.94314 -3.38707 119 ft 25 kts 239°
2026-04-22 13:20 55.94317 -3.38904 120 ft 17 kts 326°
2026-04-22 13:20 55.94418 -3.38974 120 ft 10 kts
2026-04-22 13:20 55.94440 -3.38907 118 ft 6 kts 65°
2026-04-22 13:20 55.94472 -3.38809 118 ft 24 kts 59°
2026-04-22 13:21 55.94679 -3.38200 116 ft 89 kts 59°
2026-04-22 13:21 55.95094 -3.36974 114 ft 139 kts 59°
2026-04-22 13:21 55.95602 -3.35463 644 ft 140 kts 60°
2026-04-22 13:21 55.96155 -3.34008 1353 ft 142 kts 49°
2026-04-22 13:22 55.96956 -3.32929 1983 ft 147 kts 37°
2026-04-22 13:22 55.97828 -3.31829 2438 ft 163 kts 41°
2026-04-22 13:22 55.98757 -3.30467 2868 ft 182 kts 44°
2026-04-22 13:22 55.99413 -3.29433 3109 ft 196 kts 45°
2026-04-22 13:23 56.00635 -3.28068 3440 ft 225 kts 19°
2026-04-22 13:23 56.02866 -3.28331 3874 ft 266 kts 337°
2026-04-22 13:23 56.03929 -3.29570 4286 ft 275 kts 316°
2026-04-22 13:23 56.04974 -3.32382 5107 ft 278 kts 288°
2026-04-22 13:24 56.05279 -3.35845 5425 ft 285 kts 262°
2026-04-22 13:24 56.04707 -3.39142 5584 ft 272 kts 234°
2026-04-22 13:24 56.03564 -3.41829 5724 ft 272 kts 227°
2026-04-22 13:24 56.02512 -3.44687 6321 ft 277 kts 237°
2026-04-22 13:25 56.01580 -3.47663 7238 ft 278 kts 238°
2026-04-22 13:25 56.00642 -3.50711 8053 ft 281 kts 238°
2026-04-22 13:25 55.99688 -3.53809 8900 ft 283 kts 237°
2026-04-22 13:25 55.98744 -3.56871 9721 ft 286 kts 237°
2026-04-22 13:26 55.97773 -3.60012 10542 ft 289 kts 238°
2026-04-22 13:26 55.96779 -3.63225 11035 ft 305 kts 237°
2026-04-22 13:26 55.95704 -3.66655 11270 ft 326 kts 237°
2026-04-22 13:26 55.94568 -3.70275 11725 ft 338 kts 237°
2026-04-22 13:27 55.93431 -3.73917 12543 ft 339 kts 237°
2026-04-22 13:27 55.92279 -3.77608 13317 ft 341 kts 237°
2026-04-22 13:27 55.91117 -3.81319 14080 ft 343 kts 237°
2026-04-22 13:27 55.89959 -3.85008 14769 ft 346 kts 237°
2026-04-22 13:28 55.88769 -3.88788 15429 ft 349 kts 237°
2026-04-22 13:28 55.87570 -3.92591 16070 ft 353 kts 237°
2026-04-22 13:28 55.86361 -3.96423 16727 ft 355 kts 237°
2026-04-22 13:28 55.85145 -4.00271 17370 ft 358 kts 238°
2026-04-22 13:29 55.83911 -4.04163 17998 ft 361 kts 237°
2026-04-22 13:29 55.82664 -4.08092 18644 ft 364 kts 238°
2026-04-22 13:29 55.81425 -4.11991 19226 ft 366 kts 238°
2026-04-22 13:29 55.80152 -4.15920 19840 ft 365 kts 235°
2026-04-22 13:30 55.78633 -4.19496 20430 ft 365 kts 227°
2026-04-22 13:30 55.76779 -4.22616 20988 ft 367 kts 219°
2026-04-22 13:30 55.74596 -4.25086 21428 ft 373 kts 211°
2026-04-22 13:30 55.72319 -4.27367 21905 ft 378 kts 211°
2026-04-22 13:31 55.70041 -4.29642 22354 ft 382 kts 211°
2026-04-22 13:31 55.67697 -4.31981 22809 ft 386 kts 212°
2026-04-22 13:31 55.65368 -4.34302 23255 ft 390 kts 212°
2026-04-22 13:31 55.62983 -4.36679 23722 ft 393 kts 212°
2026-04-22 13:32 55.60574 -4.39078 24185 ft 396 kts 212°
2026-04-22 13:32 55.58196 -4.41441 24621 ft 398 kts 213°
2026-04-22 13:32 55.55764 -4.43857 25063 ft 399 kts 213°
2026-04-22 13:32 55.53328 -4.46272 25479 ft 401 kts 213°
2026-04-22 13:33 55.50913 -4.48662 25868 ft 403 kts 213°
2026-04-22 13:33 55.48453 -4.51092 26272 ft 405 kts 213°
2026-04-22 13:33 55.45974 -4.53536 26645 ft 408 kts 213°
2026-04-22 13:33 55.43486 -4.55985 27018 ft 410 kts 213°
2026-04-22 13:34 55.41015 -4.58415 27390 ft 412 kts 213°
2026-04-22 13:34 55.38495 -4.60890 27751 ft 414 kts 213°
2026-04-22 13:34 55.35961 -4.63376 28085 ft 416 kts 213°
2026-04-22 13:34 55.33453 -4.65832 28420 ft 418 kts 213°
2026-04-22 13:35 55.30892 -4.68336 28726 ft 420 kts 213°
2026-04-22 13:35 55.28318 -4.70850 29031 ft 422 kts 213°
2026-04-22 13:35 55.25757 -4.73346 29349 ft 424 kts 213°
2026-04-22 13:35 55.23157 -4.75877 29627 ft 426 kts 213°
2026-04-22 13:36 55.20581 -4.78380 29907 ft 428 kts 213°
2026-04-22 13:36 55.17952 -4.80932 30206 ft 430 kts 213°
2026-04-22 13:36 55.15320 -4.83481 30486 ft 432 kts 213°
2026-04-22 13:36 55.12685 -4.86032 30723 ft 434 kts 212°
2026-04-22 13:37 55.10045 -4.88582 30966 ft 436 kts 212°
2026-04-22 13:37 55.07396 -4.91135 31217 ft 438 kts 212°
2026-04-22 13:37 55.04711 -4.93721 31442 ft 439 kts 212°
2026-04-22 13:37 55.02053 -4.96276 31747 ft 439 kts 212°
2026-04-22 13:38 54.99371 -4.98850 32075 ft 439 kts 212°
2026-04-22 13:38 54.94007 -5.03985 32713 ft 437 kts 212°
2026-04-22 13:38 54.91370 -5.06506 33008 ft 437 kts 212°
2026-04-22 13:39 54.88710 -5.09043 33309 ft 436 kts 212°
2026-04-22 13:39 54.86038 -5.11588 33593 ft 436 kts 212°
2026-04-22 13:39 54.83371 -5.14126 33886 ft 435 kts 212°
2026-04-22 13:39 54.80730 -5.16634 34152 ft 435 kts 212°
2026-04-22 13:40 54.78073 -5.19153 34405 ft 435 kts 211°
2026-04-22 13:40 54.75408 -5.21677 34612 ft 435 kts 211°
2026-04-22 13:40 54.72754 -5.24185 34795 ft 435 kts 211°
2026-04-22 13:40 54.70111 -5.26681 34964 ft 435 kts 211°
2026-04-22 13:41 54.67441 -5.29197 35154 ft 436 kts 211°
2026-04-22 13:41 54.64779 -5.31702 35316 ft 436 kts 211°
2026-04-22 13:41 54.62125 -5.34196 35483 ft 436 kts 211°
2026-04-22 13:41 54.59457 -5.36699 35665 ft 436 kts 211°
2026-04-22 13:42 54.56779 -5.39207 35827 ft 436 kts 211°
2026-04-22 13:42 54.54135 -5.41679 35983 ft 436 kts 211°
2026-04-22 13:42 54.51487 -5.44152 36151 ft 436 kts 211°
2026-04-22 13:42 54.48795 -5.46662 36313 ft 436 kts 211°
2026-04-22 13:43 54.46112 -5.49161 36473 ft 436 kts 210°
2026-04-22 13:43 54.43434 -5.51651 36643 ft 435 kts 210°
2026-04-22 13:43 54.40789 -5.54105 36777 ft 435 kts 210°
2026-04-22 13:43 54.38108 -5.56589 36931 ft 435 kts 210°
2026-04-22 13:44 54.35466 -5.59034 37037 ft 436 kts 210°
2026-04-22 13:44 54.32776 -5.61518 37190 ft 435 kts 210°
2026-04-22 13:44 54.30135 -5.63955 37318 ft 435 kts 210°
2026-04-22 13:44 54.27425 -5.66453 37453 ft 435 kts 210°
2026-04-22 13:45 54.24761 -5.68904 37572 ft 435 kts 210°
2026-04-22 13:45 54.22118 -5.71331 37695 ft 435 kts 210°
2026-04-22 13:45 54.19440 -5.73789 37804 ft 435 kts 209°
2026-04-22 13:45 54.16762 -5.76241 37907 ft 435 kts 209°
2026-04-22 13:46 54.14090 -5.78684 38018 ft 435 kts 209°
2026-04-22 13:46 54.11450 -5.81095 38108 ft 435 kts 209°
2026-04-22 13:46 54.06102 -5.85969 38260 ft 435 kts 209°
2026-04-22 13:47 54.00754 -5.90827 38396 ft 436 kts 209°
2026-04-22 13:47 53.95422 -5.95657 38386 ft 435 kts 208°
2026-04-22 13:48 53.90083 -6.00479 38379 ft 432 kts 208°
2026-04-22 13:48 53.84790 -6.05245 38371 ft 430 kts 208°
2026-04-22 13:49 53.79485 -6.10008 38369 ft 430 kts 208°
2026-04-22 13:49 53.74203 -6.14736 38361 ft 429 kts 208°
2026-04-22 13:50 53.68951 -6.19426 38356 ft 430 kts 208°
2026-04-22 13:50 53.63683 -6.24117 38351 ft 426 kts 208°
2026-04-22 13:51 53.58412 -6.28797 38350 ft 427 kts 208°
2026-04-22 13:51 53.53168 -6.33437 38345 ft 426 kts 208°
2026-04-22 13:52 53.47969 -6.38025 38348 ft 425 kts 208°
2026-04-22 13:52 53.42697 -6.42668 38347 ft 426 kts 208°
2026-04-22 13:53 53.37477 -6.47249 38321 ft 426 kts 208°
2026-04-22 13:53 53.32228 -6.51844 38320 ft 426 kts 208°
2026-04-22 13:54 53.26967 -6.56436 38317 ft 424 kts 208°
2026-04-22 13:54 53.21755 -6.60970 38320 ft 424 kts 208°
2026-04-22 13:55 53.16523 -6.65511 38314 ft 424 kts 208°
2026-04-22 13:55 53.11277 -6.70051 38311 ft 423 kts 208°
2026-04-22 13:56 53.06058 -6.74556 38306 ft 423 kts 208°
2026-04-22 13:56 53.00837 -6.79049 38295 ft 423 kts 208°
2026-04-22 13:57 52.95618 -6.83531 38296 ft 423 kts 208°
2026-04-22 13:57 52.90416 -6.87985 38290 ft 419 kts 208°
2026-04-22 13:58 52.85206 -6.92431 38291 ft 421 kts 208°
2026-04-22 13:58 52.80008 -6.96858 38288 ft 421 kts 207°
2026-04-22 13:59 52.74836 -7.01250 38282 ft 418 kts 207°
2026-04-22 13:59 52.69657 -7.05637 38280 ft 417 kts 207°
2026-04-22 14:00 52.64498 -7.09995 38271 ft 418 kts 207°
2026-04-22 14:00 52.59332 -7.14345 38273 ft 419 kts 207°
2026-04-22 14:01 52.54135 -7.18712 38276 ft 418 kts 207°
2026-04-22 14:01 52.48958 -7.23051 38265 ft 419 kts 207°
2026-04-22 14:02 52.43784 -7.27375 38268 ft 418 kts 207°
2026-04-22 14:02 52.38601 -7.31696 38262 ft 419 kts 207°
2026-04-22 14:03 52.33392 -7.36026 38264 ft 418 kts 207°
2026-04-22 14:03 52.28236 -7.40302 38255 ft 416 kts 206°
2026-04-22 14:04 52.23082 -7.44564 38266 ft 414 kts 206°
2026-04-22 14:04 52.18805 -7.48092 38254 ft 414 kts 206°
2026-04-22 14:05 52.12804 -7.53031 38245 ft 415 kts 206°
2026-04-22 14:06 52.05937 -7.58661 38238 ft 415 kts 206°
2026-04-22 14:06 52.00756 -7.62897 38230 ft 416 kts 206°
2026-04-22 14:07 51.95624 -7.67083 38226 ft 413 kts 206°
2026-04-22 14:07 51.90447 -7.71295 38213 ft 415 kts 206°
2026-04-22 14:08 51.85306 -7.75471 38209 ft 414 kts 206°
2026-04-22 14:08 51.80163 -7.79639 38204 ft 415 kts 206°
2026-04-22 14:09 51.74946 -7.83653 38202 ft 413 kts 202°
2026-04-22 14:09 51.69561 -7.86772 38198 ft 413 kts 199°
2026-04-22 14:10 51.64090 -7.89799 38187 ft 415 kts 199°
2026-04-22 14:10 51.58682 -7.92809 38185 ft 411 kts 199°
2026-04-22 14:11 51.53250 -7.95828 38187 ft 412 kts 199°
2026-04-22 14:11 51.47863 -7.98811 38179 ft 412 kts 199°
2026-04-22 14:12 51.42429 -8.01814 38175 ft 411 kts 199°
2026-04-22 14:12 51.37049 -8.04778 38168 ft 409 kts 199°
2026-04-22 14:13 51.31671 -8.07735 38169 ft 409 kts 199°
2026-04-22 14:13 51.26279 -8.10692 38157 ft 408 kts 199°
2026-04-22 14:14 51.20897 -8.13635 38154 ft 408 kts 199°
2026-04-22 14:14 51.15554 -8.16551 38158 ft 408 kts 199°
2026-04-22 14:15 51.10175 -8.19479 38148 ft 407 kts 199°
2026-04-22 14:15 51.04837 -8.22378 38148 ft 407 kts 199°
2026-04-22 14:16 50.99434 -8.25148 38145 ft 406 kts 195°
2026-04-22 14:16 50.93923 -8.27016 38147 ft 406 kts 192°
2026-04-22 14:17 50.88389 -8.28805 38139 ft 406 kts 192°
2026-04-22 14:17 50.82866 -8.30606 38138 ft 406 kts 192°
2026-04-22 14:18 50.77330 -8.32410 38135 ft 406 kts 192°
2026-04-22 14:18 50.71804 -8.34206 38132 ft 406 kts 192°
2026-04-22 14:19 50.66269 -8.36000 38135 ft 405 kts 192°
2026-04-22 14:19 50.60727 -8.37792 38121 ft 405 kts 192°
2026-04-22 14:20 50.52471 -8.40454 38121 ft 405 kts 192°
2026-04-22 14:20 50.46946 -8.42230 38116 ft 405 kts 192°
2026-04-22 14:21 50.38667 -8.44886 38110 ft 404 kts 192°
2026-04-22 14:22 50.30422 -8.47512 38105 ft 404 kts 192°
2026-04-22 14:23 50.22172 -8.50137 38096 ft 403 kts 192°
2026-04-22 14:23 50.16677 -8.51881 38089 ft 403 kts 192°
2026-04-22 14:24 50.11194 -8.53617 38090 ft 402 kts 192°
2026-04-22 14:24 50.05724 -8.55346 38088 ft 402 kts 192°
2026-04-22 14:25 50.00251 -8.57070 38084 ft 402 kts 192°
2026-04-22 14:25 49.94759 -8.58797 38075 ft 402 kts 192°
2026-04-22 14:26 49.89267 -8.60519 38065 ft 401 kts 192°
2026-04-22 14:26 49.83801 -8.62230 38054 ft 401 kts 192°
2026-04-22 14:27 49.78345 -8.63934 38048 ft 401 kts 192°
2026-04-22 14:27 49.72849 -8.65646 38054 ft 402 kts 192°
2026-04-22 14:28 49.67352 -8.67354 38047 ft 402 kts 192°
2026-04-22 14:28 49.61883 -8.69052 38043 ft 403 kts 192°
2026-04-22 14:29 49.56393 -8.70753 38051 ft 403 kts 192°
2026-04-22 14:29 49.50863 -8.72460 38044 ft 404 kts 192°
2026-04-22 14:30 49.45361 -8.74150 38043 ft 405 kts 192°
2026-04-22 14:30 49.39850 -8.75842 38049 ft 406 kts 192°
2026-04-22 14:31 49.34281 -8.77548 38041 ft 407 kts 192°
2026-04-22 14:31 49.28740 -8.79243 38043 ft 408 kts 192°
2026-04-22 14:32 49.23176 -8.80940 38045 ft 409 kts 192°
2026-04-22 14:32 49.17569 -8.82646 38045 ft 410 kts 192°
2026-04-22 14:33 49.11994 -8.84339 38049 ft 410 kts 192°
2026-04-22 14:33 49.06414 -8.86030 38039 ft 408 kts 192°
2026-04-22 14:34 49.00827 -8.87719 38036 ft 409 kts 192°
2026-04-22 14:34 48.95254 -8.89399 38035 ft 409 kts 192°
2026-04-22 14:35 48.89697 -8.91072 38028 ft 409 kts 192°
2026-04-22 14:35 48.84097 -8.92753 38026 ft 409 kts 192°
2026-04-22 14:36 48.78485 -8.94434 38018 ft 408 kts 192°
2026-04-22 14:36 48.72940 -8.96091 38023 ft 408 kts 192°
2026-04-22 14:37 48.67363 -8.97754 38015 ft 407 kts 192°
2026-04-22 14:37 48.61802 -8.99370 38012 ft 408 kts 190°
2026-04-22 14:38 48.56153 -9.00058 38011 ft 409 kts 182°
2026-04-22 14:38 48.50429 -9.00013 38017 ft 409 kts 182°
2026-04-22 14:39 48.44758 -8.99998 38008 ft 409 kts 182°
2026-04-22 14:39 48.39054 -8.99997 38007 ft 409 kts 182°
2026-04-22 14:40 48.30533 -8.99997 38009 ft 410 kts 182°
2026-04-22 14:40 48.24852 -8.99996 38015 ft 410 kts 183°
2026-04-22 14:41 48.19179 -8.99996 38013 ft 410 kts 183°
2026-04-22 14:41 48.13434 -8.99996 38010 ft 410 kts 183°
2026-04-22 14:42 48.07721 -8.99996 38012 ft 410 kts 183°
2026-04-22 14:42 48.02003 -8.99996 38016 ft 410 kts 183°
2026-04-22 14:43 47.96287 -8.99995 38014 ft 411 kts 183°
2026-04-22 14:43 47.90570 -8.99995 38013 ft 411 kts 183°
2026-04-22 14:44 47.84862 -8.99995 38012 ft 411 kts 183°
2026-04-22 14:44 47.83824 -8.99995 38013 ft 411 kts 183°
2026-04-22 14:47 47.81151 -8.99995 38013 ft 411 kts 184°
2026-04-22 14:47 47.76410 -8.99995 38017 ft 411 kts 184°
2026-04-22 14:48 47.70910 -8.99995 38010 ft 411 kts 184°
2026-04-22 14:48 47.65172 -8.99992 38012 ft 411 kts 184°
2026-04-22 14:49 47.59532 -8.99988 38009 ft 411 kts 184°
2026-04-22 14:49 47.53834 -8.99989 38009 ft 411 kts 184°
2026-04-22 14:50 47.48105 -8.99991 38021 ft 411 kts 184°
2026-04-22 14:50 47.42365 -8.99991 38022 ft 411 kts 184°
2026-04-22 14:51 47.36690 -8.99991 38012 ft 412 kts 184°
2026-04-22 14:51 47.30917 -8.99990 38020 ft 412 kts 184°
2026-04-22 14:52 47.25192 -8.99990 38022 ft 412 kts 184°
2026-04-22 14:52 47.19465 -8.99990 38018 ft 412 kts 185°
2026-04-22 14:53 47.13721 -8.99991 38015 ft 412 kts 185°
2026-04-22 14:53 47.08062 -8.99993 38016 ft 411 kts 185°
2026-04-22 14:54 47.02350 -8.99993 38013 ft 411 kts 185°
2026-04-22 14:54 46.97022 -8.99994 38015 ft 411 kts 185°
2026-04-22 14:55 46.92830 -8.99993 38010 ft 411 kts 185°
2026-04-22 14:55 46.89019 -8.99991 38017 ft 411 kts 185°
2026-04-22 14:56 46.83389 -8.99993 38018 ft 411 kts 185°
2026-04-22 14:56 46.77738 -8.99994 38018 ft 410 kts 185°
2026-04-22 14:57 46.72033 -8.99993 38010 ft 410 kts 185°
2026-04-22 14:57 46.66290 -8.99994 38012 ft 410 kts 186°
2026-04-22 14:58 46.60584 -8.99995 38010 ft 410 kts 186°
2026-04-22 14:58 46.54911 -8.99995 38016 ft 409 kts 186°
2026-04-22 14:59 46.49185 -8.99995 38011 ft 409 kts 186°
2026-04-22 14:59 46.43487 -8.99995 38013 ft 409 kts 186°
2026-04-22 15:00 46.37808 -8.99995 38006 ft 409 kts 186°
2026-04-22 15:00 46.32128 -8.99996 38011 ft 408 kts 186°
2026-04-22 15:01 46.26436 -8.99997 38018 ft 408 kts 186°
2026-04-22 15:01 46.20763 -8.99998 38013 ft 408 kts 186°
2026-04-22 15:02 46.15127 -8.99998 38012 ft 408 kts 186°
2026-04-22 15:02 46.09452 -8.99998 38013 ft 408 kts 186°
2026-04-22 15:03 46.03742 -8.99998 38015 ft 408 kts 186°
2026-04-22 15:03 45.98057 -8.99998 38016 ft 408 kts 186°
2026-04-22 15:04 45.92404 -8.99998 38016 ft 408 kts 186°
2026-04-22 15:04 45.86672 -9.00002 38018 ft 408 kts 186°
2026-04-22 15:05 45.81033 -9.00005 38022 ft 408 kts 185°
2026-04-22 15:05 45.75298 -9.00005 38022 ft 408 kts 185°
2026-04-22 15:06 45.69629 -9.00005 38023 ft 408 kts 185°
2026-04-22 15:06 45.63944 -9.00005 38022 ft 408 kts 185°
2026-04-22 15:07 45.58309 -9.00004 38021 ft 407 kts 185°
2026-04-22 15:07 45.52642 -9.00004 38017 ft 407 kts 185°
2026-04-22 15:08 45.46956 -9.00004 38019 ft 407 kts 185°
2026-04-22 15:08 45.41298 -9.00004 38013 ft 406 kts 185°
2026-04-22 15:09 45.35640 -9.00004 38012 ft 406 kts 185°
2026-04-22 15:09 45.29993 -9.00003 38009 ft 405 kts 185°
2026-04-22 15:10 45.24351 -9.00003 38008 ft 405 kts 185°
2026-04-22 15:10 45.18713 -9.00003 38007 ft 405 kts 185°
2026-04-22 15:11 45.13261 -9.00002 38005 ft 405 kts 185°
2026-04-22 15:11 45.07629 -9.00001 38010 ft 405 kts 185°
2026-04-22 15:12 45.01997 -9.00001 38005 ft 405 kts 185°
2026-04-22 15:12 44.96340 -9.00427 38015 ft 403 kts 189°
2026-04-22 15:13 44.90755 -9.01138 38010 ft 403 kts 189°
2026-04-22 15:13 44.85167 -9.01834 38017 ft 403 kts 189°
2026-04-22 15:14 44.80504 -9.02409 38027 ft 404 kts 189°
2026-04-22 15:14 44.74854 -9.03104 38019 ft 404 kts 189°
2026-04-22 15:15 44.69245 -9.03792 38006 ft 405 kts 189°
2026-04-22 15:15 44.63633 -9.04480 38022 ft 405 kts 189°
2026-04-22 15:16 44.58009 -9.05168 38021 ft 405 kts 189°
2026-04-22 15:16 44.52416 -9.05851 38020 ft 406 kts 189°
2026-04-22 15:17 44.46805 -9.06534 38020 ft 406 kts 189°
2026-04-22 15:17 44.41264 -9.07208 38023 ft 406 kts 189°
2026-04-22 15:18 44.35633 -9.07891 38020 ft 406 kts 189°
2026-04-22 15:18 44.30038 -9.08569 38021 ft 406 kts 189°
2026-04-22 15:19 44.24398 -9.09251 38022 ft 406 kts 189°
2026-04-22 15:19 44.18768 -9.09930 38019 ft 406 kts 189°
2026-04-22 15:20 44.13123 -9.10610 38019 ft 407 kts 189°
2026-04-22 15:20 44.07938 -9.11233 38017 ft 407 kts 189°
2026-04-22 15:21 44.02334 -9.11906 38014 ft 407 kts 189°
2026-04-22 15:21 43.96693 -9.12582 38012 ft 407 kts 189°
2026-04-22 15:22 43.91056 -9.13256 38013 ft 407 kts 189°
2026-04-22 15:22 43.85417 -9.13928 38013 ft 407 kts 189°
2026-04-22 15:23 43.79743 -9.14604 38013 ft 407 kts 189°
2026-04-22 15:23 43.74101 -9.15275 38010 ft 407 kts 188°
2026-04-22 15:24 43.68467 -9.15944 38012 ft 407 kts 189°